Wind_Speed
5 5 4 4 3 3 3 3 2 2 2 3 3 2 2 3 3 3 3 3 3 3 4 5 6 6 7 7 8 8 8 8 8 8 9 9 9 9 9 9 9 10 12 12 12 11 11 11 11 11 12 11 11 11 11 12 13 14 14 13 13 13 13 14 16 16 15 14 13
4 4 4 3 2 2 2 2 1 1 1 2 2 2 2 3 3 3 3 2 3 3 4 5 6 7 7 8 8 8 8 8 8 8 8 8 8 9 9 9 10 11 12 12 12 12 11 11 11 12 12 12 11 11 11 12 12 13 12 12 11 11 12 14 16 16 15 14 14
3 4 3 2 1 2 3 2 1 2 2 2 2 2 2 3 3 3 3 3 3 3 4 5 6 7 8 8 8 8 7 7 8 8 8 8 8 9 9 9 10 11 12 12 12 11 11 11 11 11 11 11 11 11 11 12 12 13 13 12 12 13 14 16 17 18 18 17 16
3 3 2 2 2 3 3 4 4 4 4 3 3 2 2 3 3 3 3 3 3 3 4 6 6 7 8 8 8 8 7 7 8 8 8 8 8 9 9 10 10 10 11 12 12 12 12 11 11 11 11 11 11 11 12 13 14 15 16 16 17 17 18 18 18 18 17 15 15
3 2 2 2 2 3 3 4 4 4 4 3 3 2 2 3 4 4 3 3 3 4 5 6 6 7 7 7 8 8 7 7 7 8 8 8 8 9 9 10 10 10 11 11 11 12 12 12 12 12 13 13 13 13 13 13 14 15 16 17 17 17 17 16 16 15 14 14 15
3 1 0 2 3 3 3 3 4 4 3 3 3 3 4 5 6 5 4 3 4 5 6 6 6 6 7 8 8 8 8 7 7 7 8 8 9 9 9 10 10 10 10 10 11 12 12 13 13 13 12 11 11 10 10 10 11 11 12 13 13 13 13 14 14 15 16 17 18
2 1 2 3 3 3 3 3 3 3 3 3 3 4 6 7 7 6 5 4 4 5 6 6 6 6 7 8 9 8 8 7 7 7 8 8 9 9 10 10 10 9 9 9 10 11 11 12 11 10 9 8 8 8 8 8 10 11 12 13 13 14 14 15 16 17 18 19 20
0 2 3 3 3 3 3 3 2 2 2 2 3 4 7 8 8 7 6 5 5 6 6 5 6 6 7 8 9 8 7 7 7 7 8 9 10 10 10 10 10 9 9 9 9 9 9 9 8 8 8 8 8 9 10 11 12 13 14 15 15 16 16 17 18 19 19 20 20
3 4 4 3 3 3 3 3 3 2 1 2 2 4 6 8 8 7 6 6 7 6 6 5 6 7 8 8 8 7 7 7 7 8 8 9 10 10 10 10 9 9 9 9 9 9 8 8 8 8 9 9 10 11 12 13 14 14 15 16 16 17 17 17 18 18 19 20 20
5 5 4 3 2 2 3 3 2 1 1 1 2 3 5 7 6 6 5 6 7 7 6 6 6 7 8 8 7 7 7 7 8 8 9 10 10 10 10 10 9 9 9 9 9 9 9 9 9 9 9 10 11 12 12 13 14 15 15 16 16 17 17 17 18 18 19 20 20
6 5 5 4 3 3 3 3 3 2 1 1 2 3 4 5 5 5 6 7 8 7 6 6 7 7 7 7 7 7 7 8 8 9 10 10 10 10 10 10 9 9 9 9 9 10 10 10 11 11 11 11 12 12 13 13 14 15 15 16 16 17 17 17 18 19 20 20 21
6 6 5 4 3 3 3 3 3 2 2 2 3 3 3 4 4 5 6 8 8 7 7 6 6 7 7 7 7 7 7 8 9 10 11 11 11 10 10 10 9 9 9 9 10 11 11 12 12 12 11 11 12 12 12 13 13 14 15 15 16 17 17 18 19 19 20 21 21
7 6 5 4 3 3 4 3 3 3 3 3 3 4 4 4 4 5 7 8 8 8 7 6 6 6 6 6 6 7 8 9 10 12 12 11 11 10 10 10 10 9 9 10 11 12 12 12 12 11 10 10 10 11 11 12 13 14 14 15 16 17 18 19 20 20 20 21 21
7 6 5 4 4 4 3 3 3 3 3 3 4 4 4 4 5 6 7 8 9 9 8 7 6 6 6 6 7 7 9 11 12 12 12 11 10 10 10 10 10 10 10 11 12 12 12 11 10 10 10 10 10 10 11 12 12 14 15 16 17 18 19 19 20 20 20 21 21
7 7 5 5 4 4 4 3 3 3 3 3 4 5 5 5 5 6 8 9 10 9 8 7 7 7 7 7 8 9 10 12 12 11 10 10 10 10 10 10 10 10 10 10 11 11 11 11 10 10 10 9 9 10 11 12 13 15 16 17 18 19 19 19 20 20 20 21 22
8 7 6 5 5 4 4 4 4 4 4 4 4 5 5 5 5 7 9 10 10 9 8 7 8 8 8 9 10 11 12 12 11 10 10 10 10 10 10 10 10 10 10 10 10 10 10 10 11 11 11 11 11 12 12 14 15 17 18 18 19 19 19 19 20 20 20 21 21
8 7 6 5 5 5 4 4 5 5 5 5 5 5 5 6 6 7 9 10 10 9 8 8 9 9 9 9 10 11 12 11 10 10 10 10 11 11 11 10 10 10 10 10 10 10 10 10 11 11 11 12 13 13 14 16 18 19 20 20 19 19 19 19 19 19 20 20 20
8 7 6 6 5 5 5 5 5 6 5 5 6 6 6 6 7 8 9 9 9 9 9 9 9 9 10 10 11 11 11 11 10 10 11 11 11 11 11 10 10 10 10 10 10 10 10 10 11 11 12 12 13 14 16 18 20 21 21 21 20 20 19 19 19 19 19 19 19
8 7 7 6 6 5 5 6 6 6 6 6 6 6 6 7 7 8 8 8 9 9 10 10 10 10 10 11 11 11 11 10 11 11 11 12 11 11 10 10 10 10 10 10 10 10 10 10 10 11 12 13 14 15 17 20 22 23 24 23 22 21 20 19 18 18 18 18 19
8 8 7 6 6 6 6 7 7 7 7 7 7 7 7 7 8 8 8 8 9 10 11 11 10 10 11 11 11 10 10 11 11 12 12 12 11 10 10 10 10 10 10 10 10 10 9 10 10 11 13 14 15 17 20 22 24 25 26 25 24 22 20 18 17 17 17 17 18
8 8 7 7 7 7 8 8 8 8 8 7 7 7 7 8 8 8 9 9 10 10 11 10 10 11 12 12 11 10 10 11 12 13 13 12 11 10 10 10 10 10 10 10 10 9 9 10 12 13 15 16 18 20 22 24 26 27 27 25 23 21 19 17 16 15 16 16 17
8 8 7 7 7 8 8 9 9 9 8 8 7 7 8 8 8 8 9 9 10 10 10 10 11 13 14 13 11 11 11 12 13 13 12 11 10 10 10 10 10 10 11 11 11 11 12 13 15 16 18 20 21 22 24 26 27 28 27 24 22 19 17 16 15 14 15 16 17
8 8 8 8 8 9 9 9 9 9 8 8 8 8 8 8 8 9 9 9 10 10 10 12 14 15 15 13 11 11 12 13 13 12 11 11 10 10 10 10 10 10 11 13 14 14 15 16 18 20 21 22 23 23 25 27 28 27 26 23 21 19 17 15 14 14 15 16 16
8 8 9 9 9 10 10 9 9 9 8 8 8 8 8 8 9 9 9 9 9 10 12 15 16 16 14 12 11 11 13 13 12 11 11 10 10 10 10 10 9 10 12 15 16 17 18 19 20 21 22 23 23 24 26 27 28 26 24 22 20 18 16 15 15 15 15 16 16
9 9 10 10 11 10 10 10 9 9 9 9 9 9 9 9 9 9 9 9 11 13 16 17 16 14 12 11 12 13 13 13 12 11 11 11 10 10 10 9 9 11 14 16 17 18 19 20 20 21 22 22 23 25 26 27 27 25 23 21 19 17 16 15 15 15 16 16 16
10 10 11 11 11 11 10 10 9 9 9 9 9 9 9 9 9 9 10 12 14 16 17 16 14 12 11 12 13 14 13 12 12 11 11 11 11 10 10 9 9 11 15 17 18 18 18 19 20 20 21 22 24 25 27 27 26 24 22 20 18 16 15 15 15 16 16 17 17
10 11 12 12 12 11 10 10 10 10 10 10 9 9 9 9 9 11 13 15 17 17 15 13 12 11 12 12 13 13 12 12 11 11 11 11 11 11 10 10 10 12 15 17 17 18 18 18 19 20 22 23 24 26 27 27 25 23 20 19 17 15 15 15 16 17 17 17 18
11 12 12 12 12 11 11 10 10 10 10 10 9 9 10 11 12 14 16 17 17 15 13 12 11 11 12 12 12 12 12 12 11 11 11 11 11 11 10 10 10 13 15 17 17 17 18 19 20 21 23 24 25 26 26 25 23 21 19 18 16 15 14 15 16 17 17 18 18
12 12 12 12 12 11 11 11 11 10 10 10 10 11 12 15 17 18 18 17 14 13 12 12 12 12 12 13 13 13 12 12 11 11 11 10 10 9 9 9 10 13 16 17 17 18 18 20 21 22 24 25 26 26 25 23 21 20 18 17 15 14 14 15 16 17 17 18 18
11 12 12 12 12 12 12 11 11 11 11 11 12 14 16 17 18 18 16 14 12 12 12 12 12 12 13 13 14 13 13 12 11 10 10 9 9 9 9 8 10 14 17 18 18 19 19 21 22 23 24 25 25 25 23 21 20 19 17 16 14 13 14 15 16 17 17 18 18
11 11 12 12 12 12 12 12 11 11 12 12 14 16 17 17 17 16 14 13 12 12 12 13 13 13 14 14 14 13 12 12 11 10 9 9 9 9 9 9 10 14 17 18 19 19 20 21 22 23 24 25 25 23 21 19 18 17 17 15 14 13 14 15 16 17 17 17 17
11 12 12 12 12 12 12 12 12 12 13 13 15 16 16 16 16 15 14 13 13 13 13 13 13 14 14 14 13 13 12 12 11 11 10 10 10 11 11 10 10 14 17 17 18 18 19 20 22 23 24 24 23 20 19 18 17 17 16 15 13 13 14 15 16 16 16 17 17
12 12 12 13 13 13 13 13 13 13 14 14 15 16 16 16 15 14 14 13 13 13 14 14 14 14 14 14 13 13 12 12 12 12 12 12 12 13 12 10 9 12 16 16 17 18 19 21 22 23 23 22 20 18 17 16 17 16 16 14 14 13 14 14 15 16 16 17 17
12 12 13 13 13 13 14 14 14 15 15 16 16 16 16 15 15 14 14 14 14 14 14 14 14 14 14 14 13 13 12 12 13 13 14 14 13 12 11 10 9 12 15 16 18 19 20 22 22 22 21 19 17 16 16 16 16 16 16 15 14 14 13 14 14 15 16 16 17
12 12 13 13 13 14 14 14 15 16 17 17 16 16 15 15 15 14 15 15 15 15 15 15 15 15 15 14 14 13 13 13 13 13 13 13 12 12 11 10 9 12 15 17 18 20 21 22 21 20 19 17 16 16 16 16 16 16 16 15 14 14 14 14 14 15 16 16 16
12 12 13 13 13 13 14 15 16 17 17 17 16 16 16 15 15 15 15 15 15 15 15 15 15 15 14 14 13 13 13 13 12 11 10 11 11 12 11 10 10 12 16 18 19 21 21 21 20 18 17 16 16 15 16 16 16 16 16 15 15 14 14 14 15 16 16 16 15
12 12 12 11 11 12 13 15 17 17 17 17 17 17 16 16 16 15 15 15 15 15 15 15 15 14 14 13 13 13 12 12 11 11 10 11 12 13 12 11 10 12 16 19 21 21 21 20 19 18 17 16 16 15 15 16 16 16 16 16 15 14 14 15 16 16 16 15 14
11 10 10 10 11 12 14 15 17 17 17 17 17 17 17 16 16 15 15 15 15 15 14 14 14 14 14 13 13 13 12 12 12 12 12 12 13 13 13 12 12 13 16 19 21 21 20 19 18 18 17 16 16 15 15 16 16 17 17 16 15 15 15 16 17 17 16 14 13
9 8 9 10 12 14 15 16 16 16 17 17 17 16 16 15 15 15 14 14 14 14 14 14 14 14 14 14 14 13 13 13 13 13 14 13 14 14 14 14 15 15 16 19 20 20 19 18 18 17 16 16 15 15 15 16 16 16 17 16 16 16 17 17 17 17 15 14 12
8 8 10 11 14 15 16 16 16 16 16 16 16 15 15 15 15 15 14 14 14 15 15 15 15 15 15 14 14 14 14 14 14 13 13 12 12 13 15 16 17 16 16 18 19 19 18 18 17 17 16 15 15 15 15 16 16 16 16 16 16 17 17 18 17 17 15 14 12
8 10 12 14 15 16 17 16 16 16 16 15 15 15 15 15 15 15 15 15 15 15 15 16 15 15 14 14 14 14 14 14 13 13 12 12 12 13 15 17 18 16 15 16 18 18 18 18 17 16 16 15 15 15 16 16 16 16 16 16 16 17 17 18 18 17 16 14 12
Wind_Direction
320 321 318 309 290 268 259 260 245 217 196 184 182 191 210 222 234 249 269 282 283 285 286 288 292 297 299 299 301 303 305 308 309 309 310 313 314 312 306 303 304 305 304 304 303 303 301 300 299 298 296 295 294 294 293 293 292 291 289 286 284 284 286 288 289 288 287 289 292
312 314 314 306 279 240 239 260 274 102 125 153 172 190 216 239 252 264 277 288 287 284 281 282 287 293 297 299 301 304 306 310 310 309 310 312 313 310 307 307 307 307 307 307 307 306 303 301 299 298 297 295 290 286 284 283 283 282 282 283 286 292 297 300 302 305 307 310 313
292 302 303 291 232 195 187 178 138 136 161 187 198 211 231 258 276 285 290 292 287 280 278 280 286 291 295 298 302 306 309 309 309 308 308 309 310 309 309 309 311 310 310 311 310 307 302 298 295 294 293 291 288 285 284 286 287 289 293 299 306 311 313 313 314 317 320 323 323
260 269 266 242 202 177 162 150 153 165 180 193 202 218 243 273 290 298 299 295 283 277 278 281 287 290 293 297 302 307 309 308 306 305 306 306 306 308 308 308 310 311 310 309 306 303 298 295 295 297 300 301 302 304 305 305 305 306 309 312 315 318 319 318 318 320 322 322 319
263 261 245 210 176 155 144 143 158 171 182 188 198 221 256 287 302 308 306 296 281 275 279 284 287 289 291 296 302 305 307 306 304 304 304 304 304 305 307 309 310 310 308 305 302 300 300 302 305 309 311 313 314 315 314 313 312 313 314 315 317 318 319 318 316 314 313 310 306
288 296 106 117 119 126 133 141 155 166 172 180 199 233 267 294 310 316 315 303 287 282 283 289 290 291 292 296 300 303 304 305 303 304 304 304 303 304 306 310 311 312 311 308 305 303 304 307 311 313 314 313 313 312 310 310 311 312 313 314 315 314 313 309 306 304 302 301 302
305 11 74 91 104 123 141 153 156 157 162 181 214 252 278 299 313 322 326 320 306 296 292 293 294 293 293 294 299 302 304 305 304 304 305 305 304 303 304 306 308 310 312 311 309 308 308 309 312 312 311 308 305 304 304 305 304 304 304 304 304 302 301 299 299 300 301 303 304
39 98 107 119 131 149 166 178 180 171 170 191 230 266 287 302 312 321 328 328 317 306 299 295 293 293 293 295 299 302 304 306 306 306 307 306 305 305 305 306 306 306 308 309 309 309 310 310 309 307 305 303 301 300 299 298 299 300 302 304 305 304 302 300 300 301 303 304 304
142 141 148 153 155 162 176 189 199 199 191 206 245 275 292 303 309 314 316 314 315 311 305 297 293 291 293 296 300 302 304 306 308 308 307 306 307 308 308 307 306 306 306 306 306 305 305 305 302 302 303 303 304 302 299 297 299 302 304 307 308 308 306 303 302 302 303 304 304
156 161 165 169 166 163 171 187 203 212 226 237 261 282 295 303 305 300 296 299 310 314 309 299 293 293 295 298 300 302 304 306 307 307 306 306 306 307 307 306 305 305 305 305 301 297 293 292 292 294 298 302 303 303 301 299 301 304 307 309 309 309 308 307 305 305 305 305 305
168 171 172 177 175 163 163 176 191 207 226 241 253 272 287 296 292 281 279 289 304 311 308 298 293 294 296 299 300 302 303 304 304 303 303 303 304 304 303 302 301 302 302 301 295 290 287 287 289 292 295 297 298 299 301 303 306 308 310 310 309 309 309 308 308 306 305 304 304
175 176 178 184 181 168 163 175 190 207 225 238 249 257 267 275 273 268 271 282 297 304 302 295 293 294 296 299 300 302 302 301 299 298 298 301 302 302 301 300 299 299 298 295 290 288 289 291 293 295 297 297 296 298 302 307 310 311 310 309 308 308 308 307 307 306 305 304 304
176 178 184 190 185 174 171 182 197 214 231 245 255 261 265 266 265 264 268 277 290 298 299 294 292 293 296 298 301 301 299 296 295 296 298 301 302 301 300 298 298 297 295 292 290 291 293 296 298 300 299 298 299 301 306 309 311 311 311 311 310 309 307 306 306 306 306 305 305
179 183 189 194 189 183 183 193 207 223 236 249 259 264 266 268 265 262 264 273 286 295 298 293 290 290 292 295 296 296 294 294 296 299 302 303 302 300 298 297 296 295 294 293 293 295 297 300 301 299 297 297 300 303 306 308 309 311 312 312 311 310 309 308 308 307 307 306 306
183 188 194 196 193 192 196 206 219 228 237 247 258 263 266 267 264 262 266 274 285 293 294 290 288 287 288 289 290 292 295 300 304 306 305 303 300 298 296 295 293 293 294 294 295 297 299 300 297 293 291 292 296 299 302 304 306 308 310 311 311 311 310 309 308 308 307 306 306
188 192 196 197 198 203 213 221 230 236 241 249 257 263 266 264 261 263 269 277 285 289 288 286 288 289 289 289 293 298 304 309 311 309 304 300 298 296 294 293 293 292 293 293 294 296 297 296 292 288 286 286 289 293 297 301 304 307 309 310 310 309 308 308 307 307 307 306 306
192 195 199 203 208 218 227 233 241 246 251 257 261 264 263 261 261 265 271 278 282 282 281 284 290 293 295 296 301 306 310 311 309 305 300 297 295 294 293 292 293 292 291 290 291 292 293 292 289 286 284 284 287 291 295 301 305 309 311 312 310 309 307 306 306 306 307 306 306
196 200 205 213 220 228 233 238 246 253 259 262 264 263 262 262 263 268 273 276 278 277 280 285 292 296 299 301 304 307 309 307 303 299 296 295 294 293 292 292 292 290 289 288 289 290 290 288 284 282 282 283 286 291 297 303 308 311 313 313 311 309 307 306 306 307 307 307 306
201 206 214 222 228 233 236 239 247 254 260 263 264 263 263 263 266 271 274 274 274 276 281 287 293 297 300 302 303 304 304 301 298 295 293 293 294 293 293 292 290 289 288 288 290 290 288 283 277 275 277 280 286 293 301 306 310 312 313 313 313 311 310 308 307 307 308 308 308
207 214 222 229 234 237 238 240 247 253 259 263 265 266 265 265 268 271 273 273 271 274 280 288 292 295 298 300 301 301 299 295 293 292 292 294 295 295 293 291 289 288 289 291 292 290 282 273 268 268 273 280 289 298 304 308 311 313 315 317 317 316 314 312 310 310 310 310 310
214 222 229 234 237 239 240 242 247 253 258 263 264 266 267 267 270 272 272 271 271 274 279 285 288 292 296 300 300 298 294 291 290 291 294 295 295 295 293 291 289 290 291 292 288 279 268 260 262 268 277 286 295 301 306 309 312 316 319 321 321 321 319 318 316 315 314 313 312
221 228 234 239 239 240 242 244 248 253 258 261 263 265 267 269 272 274 273 272 273 275 277 280 285 291 297 301 300 296 292 290 291 293 295 295 293 293 292 290 290 293 292 285 274 265 261 262 268 276 285 292 298 303 306 311 315 319 322 324 325 325 325 325 324 322 319 316 314
227 232 236 238 242 244 245 247 250 254 257 260 262 265 268 271 274 276 276 276 276 275 274 277 286 294 300 302 298 293 291 292 293 295 294 291 290 290 290 290 292 294 288 277 270 268 269 274 279 285 291 295 299 303 308 313 318 322 324 326 327 328 330 331 330 326 322 318 314
231 235 238 239 242 244 246 247 250 252 255 258 261 265 269 272 277 278 278 277 273 271 274 281 290 297 301 298 291 288 291 293 294 294 290 286 286 287 288 289 292 288 281 276 275 276 279 283 287 291 294 298 301 305 310 315 319 323 325 327 328 331 333 336 334 328 322 317 314
236 238 239 239 240 242 244 246 248 251 255 259 263 267 270 274 277 278 276 272 270 273 279 288 295 298 296 289 285 287 291 295 296 293 289 285 285 285 286 286 290 286 281 280 281 284 286 289 292 294 297 300 303 307 311 316 320 323 326 327 330 334 337 338 334 327 321 316 314
239 239 239 239 241 243 244 246 249 252 256 261 267 270 272 274 275 273 271 271 275 281 288 294 296 293 286 281 283 289 294 296 296 292 288 285 285 284 283 282 286 286 285 285 288 290 292 293 294 296 298 301 304 308 312 316 321 324 326 328 332 337 340 336 330 323 318 315 313
242 240 240 240 241 243 245 248 251 255 259 265 269 271 271 269 268 268 272 279 285 290 294 295 291 285 280 279 284 290 293 293 292 290 288 285 284 282 281 280 281 283 285 288 290 291 292 293 294 296 299 302 305 309 313 317 321 324 326 330 336 340 339 332 325 319 315 312 310
243 241 240 240 240 243 246 250 253 257 261 266 268 268 265 262 265 272 281 290 294 296 294 291 286 281 278 279 284 288 289 289 289 289 288 286 284 281 279 279 281 282 283 285 287 289 290 292 294 296 299 303 306 311 314 318 321 324 327 332 339 341 335 325 319 314 311 310 309
244 242 241 240 241 244 248 252 255 258 262 265 265 263 261 264 271 282 291 297 298 295 291 287 283 278 276 278 282 285 286 286 287 287 288 286 284 281 279 281 286 284 282 283 284 287 289 292 294 297 300 304 308 312 315 319 322 325 329 336 341 338 327 318 313 310 309 309 310
245 243 242 242 244 247 251 253 257 260 262 263 262 262 265 272 281 290 297 297 294 289 286 283 279 277 276 279 283 285 285 285 284 284 284 283 281 278 278 284 290 287 283 283 284 286 289 292 295 298 301 305 309 313 316 320 323 327 333 339 340 332 320 313 310 309 309 310 311
246 245 245 245 247 250 253 256 259 261 262 262 263 266 272 280 288 293 294 292 288 284 281 279 276 275 277 280 283 284 283 281 279 277 274 273 274 276 279 284 291 288 285 286 287 289 291 293 295 298 302 306 310 314 318 321 325 330 336 340 336 325 316 311 310 310 311 312 312
247 246 247 248 250 253 256 259 261 262 262 263 266 271 278 285 289 290 289 288 285 283 280 277 275 275 276 280 282 282 279 276 272 268 266 266 270 276 280 284 289 288 286 287 288 289 290 292 294 298 303 308 312 316 320 323 327 333 339 340 332 323 316 313 313 313 313 313 312
249 249 249 250 252 254 257 259 261 262 263 265 270 276 281 285 286 286 285 284 283 281 279 276 274 273 275 278 279 279 276 271 266 263 263 267 273 277 280 280 284 283 282 284 285 286 288 290 295 300 306 310 314 318 322 325 329 335 339 338 333 326 321 318 316 315 314 313 312
252 252 252 252 253 255 257 259 261 263 266 269 274 278 281 282 283 282 281 281 281 280 277 274 272 273 275 277 278 276 272 267 263 263 266 271 274 275 276 277 278 277 277 279 281 283 286 291 297 304 309 314 318 321 324 327 331 336 339 338 335 332 328 324 319 316 314 313 312
256 257 257 257 257 258 259 261 264 266 269 272 275 277 278 278 278 279 279 280 280 278 276 274 272 274 276 278 277 275 270 266 264 265 268 271 272 271 273 276 274 273 274 277 279 283 289 295 303 309 314 318 321 323 326 328 332 336 338 339 339 337 332 326 321 317 314 313 311
259 261 262 263 263 264 265 266 267 269 270 272 274 275 276 276 276 277 278 279 279 277 276 274 273 274 276 277 277 274 270 266 264 265 267 269 270 271 273 274 270 269 273 276 281 287 294 301 309 315 318 321 322 324 327 329 332 335 338 341 342 339 333 326 321 318 316 315 313
262 264 266 268 271 273 273 272 271 270 270 271 272 274 275 276 276 277 277 278 277 276 274 273 273 273 273 275 275 274 270 264 261 261 265 270 274 275 275 271 263 266 273 280 286 293 300 307 314 318 320 321 323 325 327 329 332 335 338 342 342 338 332 326 322 321 321 321 319
261 263 268 275 280 280 277 273 271 270 270 271 273 275 276 277 277 277 277 276 276 274 273 271 271 271 271 272 273 271 267 262 260 262 268 274 277 277 273 267 260 265 276 285 291 296 303 309 315 319 321 321 322 324 327 329 332 335 339 342 341 336 331 327 327 328 329 330 328
256 264 277 287 286 282 277 272 270 270 272 274 275 276 277 276 276 276 276 274 273 272 271 269 269 270 270 271 270 268 264 262 263 267 272 276 278 276 271 267 267 271 279 286 290 295 301 308 315 319 321 321 322 324 327 329 332 335 339 341 339 335 332 331 332 334 336 338 335
262 280 290 289 285 279 273 269 268 270 272 274 275 275 275 274 274 273 273 272 271 270 269 270 270 271 271 270 268 265 263 263 265 268 271 272 272 270 270 272 277 281 283 284 287 291 297 305 314 319 322 323 324 325 327 329 332 336 339 339 337 335 334 334 336 338 340 341 338
285 293 292 285 279 274 270 268 269 270 270 271 272 273 273 272 272 271 271 271 270 270 271 272 273 273 272 270 268 265 264 264 265 265 264 261 262 265 271 277 284 286 284 280 283 287 294 303 313 320 324 325 325 326 328 330 333 336 337 337 336 335 334 335 338 341 343 342 338
Height
1546 1546 1546 1546 1546 1546 1546 1546 1546 1546 1546 1546 1546 1546 1546 1546 1546 1546 1546 1545 1545 1544 1544 1543 1543 1542 1542 1542 1541 1541 1541 1540 1540 1540 1539 1539 1539 1538 1538 1537 1536 1535 1534 1534 1533 1533 1532 1532 1531 1531 1531 1531 1530 1530 1530 1529 1529 1528 1527 1526 1526 1525 1524 1524 1524 1523 1522 1521 1521
1545 1546 1546 1546 1546 1545 1545 1545 1545 1545 1545 1546 1546 1546 1546 1546 1546 1545 1545 1544 1544 1544 1543 1543 1542 1542 1541 1541 1541 1540 1540 1539 1539 1539 1539 1538 1538 1537 1537 1536 1535 1534 1534 1533 1532 1532 1531 1531 1531 1530 1530 1529 1529 1529 1528 1528 1527 1526 1526 1525 1524 1524 1523 1523 1523 1522 1521 1521 1520
1545 1545 1545 1545 1545 1545 1545 1545 1545 1545 1546 1546 1546 1546 1546 1545 1545 1545 1544 1544 1543 1543 1542 1542 1541 1541 1541 1540 1540 1539 1539 1539 1538 1538 1538 1537 1537 1536 1536 1535 1534 1533 1533 1532 1532 1531 1531 1530 1530 1529 1529 1528 1528 1527 1527 1526 1526 1525 1525 1524 1523 1523 1523 1522 1522 1521 1521 1520 1520
1544 1544 1544 1544 1544 1544 1544 1544 1545 1545 1545 1545 1545 1545 1545 1545 1545 1544 1544 1543 1543 1542 1542 1541 1541 1540 1540 1539 1539 1539 1538 1538 1537 1537 1537 1536 1536 1536 1535 1534 1533 1533 1532 1532 1531 1531 1530 1529 1529 1528 1528 1528 1527 1527 1526 1526 1525 1525 1524 1523 1523 1522 1522 1521 1521 1521 1520 1520 1520
1543 1543 1543 1543 1543 1544 1544 1544 1544 1545 1545 1545 1545 1545 1544 1544 1544 1544 1543 1543 1542 1542 1541 1540 1540 1540 1539 1539 1538 1538 1537 1537 1537 1536 1536 1536 1535 1535 1534 1533 1533 1532 1532 1531 1531 1530 1529 1529 1528 1528 1527 1527 1527 1526 1526 1525 1525 1524 1523 1523 1522 1522 1521 1521 1521 1521 1520 1520 1519
1542 1542 1543 1543 1543 1543 1543 1543 1543 1544 1544 1544 1544 1544 1544 1543 1543 1543 1543 1542 1542 1541 1540 1540 1539 1539 1539 1538 1538 1537 1537 1536 1536 1536 1535 1535 1534 1534 1533 1533 1532 1531 1531 1531 1530 1529 1529 1528 1527 1527 1527 1526 1526 1526 1526 1525 1524 1524 1523 1522 1522 1522 1521 1521 1521 1520 1519 1518 1517
1541 1541 1541 1541 1542 1542 1542 1542 1543 1543 1543 1543 1543 1543 1543 1543 1542 1542 1542 1541 1541 1541 1540 1539 1539 1539 1538 1537 1537 1536 1536 1536 1535 1535 1534 1534 1533 1533 1532 1532 1531 1531 1531 1530 1530 1529 1528 1528 1527 1527 1526 1526 1526 1526 1525 1524 1523 1523 1522 1521 1521 1521 1521 1520 1519 1518 1518 1517 1516
1540 1541 1541 1541 1541 1541 1542 1542 1542 1542 1542 1542 1542 1542 1541 1541 1541 1541 1541 1541 1540 1540 1539 1539 1539 1538 1537 1537 1536 1536 1535 1535 1534 1534 1533 1533 1532 1532 1532 1531 1531 1530 1530 1530 1529 1529 1528 1527 1527 1526 1526 1526 1525 1525 1524 1523 1522 1521 1521 1520 1520 1520 1519 1519 1518 1517 1516 1516 1515
1540 1540 1541 1541 1541 1541 1541 1541 1541 1541 1541 1541 1541 1541 1541 1541 1540 1540 1540 1540 1539 1539 1539 1538 1538 1537 1537 1536 1536 1535 1535 1534 1534 1533 1532 1532 1532 1531 1531 1531 1530 1530 1529 1529 1529 1528 1528 1527 1526 1526 1525 1525 1524 1523 1522 1521 1521 1520 1520 1519 1519 1518 1518 1517 1517 1516 1516 1515 1514
1539 1540 1540 1540 1540 1541 1541 1541 1541 1540 1540 1540 1540 1540 1540 1539 1539 1539 1539 1539 1538 1538 1538 1537 1537 1536 1536 1536 1535 1535 1534 1533 1533 1532 1532 1531 1531 1531 1530 1530 1529 1529 1528 1528 1528 1527 1526 1526 1525 1525 1524 1524 1523 1522 1521 1521 1520 1519 1519 1518 1518 1517 1517 1516 1516 1515 1514 1513 1512
1539 1539 1540 1540 1540 1540 1540 1541 1540 1540 1540 1539 1539 1539 1539 1539 1539 1539 1538 1538 1537 1537 1537 1536 1536 1536 1535 1535 1534 1534 1533 1533 1532 1531 1531 1531 1530 1530 1530 1529 1529 1528 1528 1527 1527 1526 1525 1525 1524 1523 1523 1522 1522 1521 1520 1519 1519 1518 1518 1517 1517 1516 1516 1515 1514 1514 1513 1512 1511
1539 1539 1539 1539 1539 1539 1540 1540 1540 1540 1539 1539 1539 1539 1538 1538 1538 1538 1537 1537 1536 1536 1536 1536 1535 1535 1534 1534 1534 1533 1532 1532 1531 1531 1530 1530 1529 1529 1529 1528 1528 1527 1527 1526 1526 1525 1524 1524 1523 1523 1522 1521 1521 1520 1519 1518 1518 1517 1517 1516 1516 1515 1514 1513 1513 1512 1511 1511 1510
1538 1538 1539 1539 1539 1539 1539 1539 1539 1539 1538 1538 1538 1538 1538 1538 1537 1537 1537 1536 1536 1535 1535 1535 1534 1534 1533 1533 1532 1532 1531 1531 1530 1529 1529 1529 1529 1528 1528 1528 1527 1527 1526 1525 1524 1524 1523 1523 1522 1522 1521 1521 1520 1519 1518 1518 1517 1516 1516 1515 1514 1514 1513 1512 1511 1511 1510 1509 1508
1537 1537 1538 1538 1538 1538 1538 1538 1538 1537 1537 1537 1537 1537 1537 1537 1536 1536 1536 1535 1535 1534 1534 1533 1533 1533 1532 1532 1531 1531 1530 1529 1529 1528 1528 1528 1528 1528 1527 1527 1526 1526 1525 1524 1523 1523 1522 1522 1521 1521 1520 1519 1519 1518 1517 1516 1516 1515 1514 1514 1513 1512 1511 1511 1510 1509 1509 1508 1507
1536 1536 1537 1537 1537 1537 1537 1537 1537 1537 1537 1537 1536 1536 1536 1536 1536 1535 1535 1534 1534 1533 1533 1532 1532 1531 1531 1531 1530 1529 1528 1528 1527 1527 1527 1527 1527 1527 1526 1526 1525 1525 1524 1523 1523 1522 1522 1521 1521 1520 1519 1518 1518 1517 1516 1515 1515 1514 1513 1512 1512 1511 1510 1509 1509 1508 1507 1506 1505
1536 1536 1536 1536 1536 1536 1536 1536 1536 1536 1536 1536 1536 1535 1535 1535 1534 1534 1533 1533 1532 1532 1531 1531 1531 1530 1530 1529 1528 1527 1527 1526 1526 1526 1526 1526 1526 1526 1525 1525 1524 1523 1523 1523 1522 1522 1521 1521 1520 1519 1518 1517 1516 1516 1515 1514 1513 1512 1512 1511 1510 1510 1509 1508 1507 1506 1506 1505 1504
1535 1535 1535 1535 1536 1536 1536 1536 1535 1535 1535 1535 1535 1534 1534 1534 1533 1533 1532 1532 1531 1531 1531 1530 1530 1529 1528 1528 1527 1526 1526 1525 1525 1526 1525 1525 1525 1524 1524 1523 1523 1522 1522 1521 1521 1521 1521 1520 1519 1518 1517 1516 1515 1514 1513 1512 1512 1511 1510 1510 1509 1508 1507 1506 1506 1505 1504 1503 1502
1534 1534 1534 1534 1535 1535 1535 1535 1534 1534 1534 1534 1534 1533 1533 1532 1532 1532 1531 1531 1531 1530 1530 1529 1529 1528 1527 1527 1526 1525 1525 1525 1525 1525 1524 1524 1523 1523 1522 1522 1522 1521 1521 1521 1520 1520 1519 1519 1518 1516 1516 1515 1514 1513 1512 1511 1510 1510 1509 1508 1507 1506 1505 1505 1504 1503 1502 1501 1501
1533 1533 1533 1533 1534 1534 1534 1534 1533 1533 1533 1533 1533 1532 1532 1531 1531 1531 1531 1530 1530 1529 1529 1528 1528 1527 1526 1526 1525 1525 1524 1524 1524 1523 1523 1523 1522 1522 1521 1521 1521 1520 1520 1519 1519 1519 1518 1518 1516 1515 1514 1513 1512 1511 1511 1510 1509 1508 1507 1506 1505 1504 1503 1503 1502 1501 1501 1500 1499
1532 1532 1532 1532 1532 1532 1532 1532 1532 1532 1532 1532 1531 1531 1531 1531 1530 1530 1530 1529 1529 1528 1528 1527 1527 1526 1526 1525 1524 1524 1524 1523 1523 1522 1522 1521 1521 1521 1520 1520 1520 1519 1519 1518 1518 1518 1517 1516 1515 1514 1513 1512 1511 1511 1510 1509 1508 1507 1506 1505 1504 1502 1502 1501 1500 1500 1499 1499 1498
1531 1531 1531 1531 1531 1531 1531 1531 1531 1531 1531 1531 1531 1530 1530 1530 1529 1529 1529 1528 1528 1527 1527 1526 1526 1525 1525 1524 1523 1523 1523 1522 1522 1521 1521 1520 1520 1520 1519 1519 1519 1518 1518 1517 1517 1517 1516 1515 1513 1512 1512 1511 1511 1510 1508 1507 1506 1505 1504 1503 1502 1501 1500 1499 1499 1498 1498 1497 1497
1530 1530 1530 1530 1530 1530 1530 1530 1530 1530 1530 1530 1530 1529 1529 1529 1528 1528 1528 1527 1527 1526 1526 1525 1525 1524 1523 1523 1522 1522 1522 1521 1521 1520 1520 1519 1519 1519 1518 1518 1517 1517 1517 1516 1516 1515 1514 1513 1512 1512 1511 1510 1510 1508 1507 1506 1505 1504 1503 1501 1500 1499 1498 1498 1497 1497 1496 1496 1496
1529 1529 1529 1529 1529 1529 1529 1529 1529 1529 1529 1529 1528 1528 1528 1528 1527 1527 1527 1526 1526 1525 1525 1524 1523 1523 1522 1522 1522 1521 1521 1521 1520 1519 1519 1519 1518 1518 1517 1517 1517 1516 1516 1515 1514 1513 1513 1512 1512 1511 1510 1510 1508 1507 1506 1505 1504 1502 1501 1500 1499 1498 1497 1496 1496 1496 1496 1495 1495
1527 1527 1527 1527 1528 1528 1528 1528 1528 1528 1528 1528 1527 1527 1527 1527 1526 1526 1526 1526 1525 1524 1524 1523 1522 1522 1521 1521 1521 1521 1520 1519 1519 1518 1518 1518 1518 1517 1516 1516 1516 1515 1514 1513 1512 1512 1512 1511 1511 1510 1509 1508 1507 1506 1505 1504 1502 1501 1500 1499 1497 1496 1496 1495 1495 1495 1495 1494 1494
1525 1525 1526 1526 1526 1527 1527 1527 1527 1527 1527 1527 1526 1526 1526 1526 1526 1525 1525 1524 1524 1523 1522 1522 1521 1521 1520 1520 1520 1520 1519 1518 1518 1517 1517 1517 1517 1516 1516 1515 1515 1514 1512 1511 1511 1511 1511 1510 1510 1509 1508 1507 1506 1505 1504 1502 1501 1500 1499 1497 1496 1495 1494 1494 1494 1494 1494 1493 1493
1524 1524 1525 1525 1526 1526 1526 1526 1526 1526 1526 1526 1526 1526 1525 1525 1524 1524 1523 1523 1522 1522 1521 1521 1520 1520 1520 1519 1519 1518 1518 1517 1517 1517 1516 1516 1516 1515 1515 1514 1514 1513 1511 1510 1510 1510 1509 1509 1508 1507 1506 1505 1504 1503 1502 1501 1500 1499 1497 1496 1495 1494 1493 1493 1493 1493 1493 1492 1491
1523 1524 1524 1524 1524 1525 1525 1525 1525 1525 1525 1525 1525 1525 1524 1524 1523 1522 1522 1521 1521 1521 1520 1519 1519 1519 1519 1518 1518 1517 1517 1517 1516 1516 1516 1515 1515 1514 1513 1513 1513 1511 1510 1509 1509 1508 1508 1507 1506 1506 1505 1504 1503 1502 1501 1500 1498 1497 1496 1495 1494 1493 1492 1492 1492 1492 1491 1491 1490
1522 1523 1523 1523 1524 1524 1524 1524 1524 1524 1524 1524 1524 1523 1523 1522 1521 1521 1521 1521 1520 1520 1519 1518 1518 1518 1518 1517 1517 1516 1516 1516 1516 1515 1515 1514 1514 1513 1512 1512 1511 1510 1508 1508 1507 1507 1506 1506 1505 1504 1504 1503 1502 1501 1500 1498 1497 1496 1495 1494 1493 1492 1492 1492 1492 1491 1490 1489 1488
1522 1522 1523 1523 1523 1523 1523 1523 1523 1523 1523 1523 1522 1522 1521 1520 1520 1520 1520 1520 1519 1519 1518 1518 1518 1517 1517 1516 1516 1515 1515 1515 1514 1514 1514 1513 1513 1512 1512 1511 1511 1509 1507 1506 1506 1506 1505 1505 1504 1503 1502 1501 1501 1499 1498 1497 1496 1495 1494 1492 1491 1491 1491 1491 1491 1490 1489 1488 1486
1521 1522 1522 1522 1522 1522 1522 1522 1522 1522 1521 1521 1521 1520 1519 1519 1519 1519 1519 1518 1518 1518 1518 1517 1517 1516 1516 1515 1515 1514 1514 1514 1513 1513 1513 1512 1512 1511 1511 1511 1510 1508 1506 1505 1505 1505 1504 1503 1502 1502 1501 1500 1499 1498 1497 1496 1495 1493 1492 1491 1491 1491 1491 1490 1489 1488 1487 1486 1485
1521 1521 1521 1521 1521 1521 1521 1521 1521 1521 1520 1520 1519 1518 1518 1518 1518 1518 1517 1517 1517 1517 1517 1516 1516 1516 1515 1514 1514 1513 1513 1513 1512 1512 1511 1511 1510 1510 1510 1510 1509 1507 1505 1505 1504 1504 1503 1502 1501 1501 1500 1499 1498 1497 1496 1495 1493 1492 1491 1491 1490 1490 1490 1489 1488 1487 1486 1485 1484
1520 1520 1520 1520 1520 1520 1520 1520 1520 1519 1519 1518 1517 1517 1517 1517 1516 1516 1516 1516 1516 1516 1516 1515 1515 1514 1514 1513 1513 1512 1512 1511 1511 1510 1510 1509 1509 1509 1508 1509 1508 1506 1504 1504 1503 1502 1502 1501 1500 1499 1498 1498 1496 1496 1494 1493 1492 1491 1490 1490 1489 1489 1488 1488 1487 1486 1485 1484 1483
1519 1519 1519 1519 1519 1519 1519 1519 1518 1518 1517 1517 1516 1516 1516 1516 1515 1515 1515 1515 1515 1514 1514 1514 1513 1513 1512 1512 1511 1511 1511 1510 1510 1509 1508 1508 1508 1507 1507 1507 1507 1505 1503 1503 1502 1501 1501 1500 1499 1498 1497 1496 1495 1494 1493 1492 1491 1490 1490 1489 1488 1488 1487 1486 1486 1485 1484 1483 1482
1518 1518 1518 1517 1517 1517 1517 1517 1517 1517 1516 1516 1515 1515 1515 1514 1514 1514 1514 1513 1513 1513 1513 1512 1512 1511 1511 1511 1510 1510 1509 1509 1508 1507 1507 1506 1506 1506 1506 1506 1506 1504 1502 1502 1501 1500 1500 1499 1498 1497 1496 1495 1494 1493 1492 1491 1490 1489 1489 1488 1487 1487 1486 1486 1485 1484 1483 1482 1481
1517 1517 1516 1516 1516 1516 1516 1516 1516 1516 1515 1515 1514 1514 1513 1513 1513 1513 1512 1512 1512 1512 1511 1511 1511 1510 1510 1509 1509 1508 1508 1507 1506 1506 1505 1505 1505 1505 1504 1505 1505 1503 1501 1501 1500 1499 1498 1498 1497 1496 1495 1494 1493 1492 1491 1490 1489 1488 1488 1487 1486 1486 1485 1485 1484 1483 1482 1481 1480
1516 1516 1516 1515 1515 1515 1515 1515 1515 1514 1514 1513 1513 1512 1512 1512 1511 1511 1511 1511 1511 1510 1510 1510 1509 1509 1508 1508 1508 1507 1507 1506 1505 1505 1504 1504 1503 1503 1503 1503 1503 1501 1500 1499 1498 1498 1497 1496 1496 1495 1493 1492 1491 1491 1490 1489 1488 1487 1486 1486 1485 1485 1484 1483 1483 1482 1481 1480 1479
1515 1514 1514 1514 1514 1514 1514 1514 1513 1513 1513 1512 1511 1511 1511 1510 1510 1510 1510 1510 1509 1509 1509 1508 1508 1507 1507 1507 1506 1506 1506 1505 1504 1504 1503 1503 1502 1502 1502 1502 1502 1501 1499 1497 1497 1496 1496 1495 1494 1493 1492 1491 1490 1490 1489 1488 1487 1486 1486 1485 1484 1484 1483 1482 1481 1481 1480 1479 1478
1513 1513 1513 1513 1513 1513 1513 1513 1512 1512 1511 1511 1510 1510 1509 1509 1509 1508 1508 1508 1508 1507 1507 1507 1507 1506 1506 1506 1506 1505 1505 1504 1503 1502 1502 1502 1501 1501 1501 1500 1500 1499 1498 1496 1495 1495 1494 1494 1493 1492 1491 1490 1489 1488 1487 1487 1486 1485 1485 1484 1483 1482 1482 1481 1481 1480 1478 1477 1476
1511 1511 1511 1512 1512 1512 1512 1511 1511 1510 1510 1509 1509 1508 1508 1508 1507 1507 1507 1507 1506 1506 1506 1506 1505 1505 1505 1504 1504 1504 1503 1502 1502 1501 1501 1501 1500 1500 1499 1499 1498 1498 1497 1495 1494 1493 1493 1492 1492 1491 1490 1489 1488 1487 1486 1486 1485 1484 1483 1483 1482 1481 1481 1480 1479 1478 1477 1476 1476
1510 1510 1510 1511 1511 1510 1510 1510 1509 1509 1508 1508 1507 1507 1507 1506 1506 1506 1506 1506 1505 1505 1504 1504 1504 1503 1503 1503 1502 1502 1501 1501 1501 1500 1500 1500 1499 1499 1498 1497 1497 1497 1496 1494 1493 1492 1492 1491 1491 1490 1489 1488 1487 1486 1486 1485 1484 1483 1482 1482 1481 1481 1480 1479 1478 1477 1476 1475 1475
1509 1509 1509 1509 1509 1509 1508 1508 1507 1507 1507 1506 1506 1506 1505 1505 1505 1504 1504 1504 1503 1503 1503 1502 1502 1502 1501 1501 1501 1501 1500 1500 1499 1499 1499 1498 1498 1497 1496 1496 1496 1496 1495 1493 1492 1491 1491 1491 1490 1489 1488 1487 1486 1485 1485 1484 1483 1482 1481 1481 1480 1480 1479 1478 1477 1476 1475 1474 1474